Keps
Threads by month
- ----- 2023 -----
- December
- November
- October
- September
- August
- July
- June
- May
- April
- March
- February
- January
- ----- 2022 -----
- December
- November
- October
- September
- August
- July
- June
- May
- April
- March
- February
- January
- ----- 2021 -----
- December
- November
- October
- September
- August
- July
- June
- May
- April
- March
- February
- January
- ----- 2020 -----
- December
- November
- October
- September
- August
- July
- June
- May
- April
- March
- February
- January
- ----- 2019 -----
- December
- November
- October
- September
- August
- July
- June
- May
- April
- March
- February
- January
- ----- 2018 -----
- December
- November
- October
- September
- August
- July
- June
- May
- April
- March
- February
- January
- ----- 2017 -----
- December
- November
- October
- September
- August
- July
- June
- May
- April
- March
- February
- January
- ----- 2016 -----
- December
- November
- October
- September
- August
- July
- June
- May
- April
- March
- February
- January
- ----- 2015 -----
- December
- November
- October
- September
- August
- July
- June
- May
- April
- March
- February
- January
- ----- 2014 -----
- December
- November
- October
- September
- August
- July
- June
- May
- April
- March
- February
- January
- ----- 2013 -----
- December
- November
- October
- September
- August
- July
- June
- May
- April
- March
- February
- January
- ----- 2012 -----
- December
- November
- October
- September
- August
- July
- June
- May
- April
- March
- February
- January
- ----- 2011 -----
- December
- November
- October
- September
- August
- July
- June
- May
- April
- March
- February
- January
- ----- 2010 -----
- December
- November
- October
- September
- August
- July
- June
- May
- April
- March
- February
- January
- ----- 2009 -----
- December
- November
- October
- September
- August
- July
- June
- May
- April
- March
- February
- January
- ----- 2008 -----
- December
- November
- October
- September
- August
- July
- June
- May
- April
- March
- February
- January
- ----- 2007 -----
- December
- November
- October
- September
- August
- July
- June
- May
- April
- March
- February
- January
- ----- 2006 -----
- December
- November
- October
- September
June 2018
- 1 participants
- 6 discussions
SB KEPS @ AMSAT $ORB18179.N
2Line Orbital Elements 18179.AMSAT
HR AMSAT ORBITAL ELEMENTS FOR AMATEUR SATELLITES IN NASA FORMAT
FROM WA5QGD FORT WORTH,TX June 28, 2018
BID: ORB18179.N
DECODE 2-LINE ELSETS WITH THE FOLLOWING KEY:
1 AAAAAU 00 0 0 BBBBB.BBBBBBBB .CCCCCCCC 00000-0 00000-0 0 DDDZ
2 AAAAA EEE.EEEE FFF.FFFF GGGGGGG HHH.HHHH III.IIII JJ.JJJJJJJJKKKKKZ
KEY: A-CATALOGNUM B-EPOCHTIME C-DECAY D-ELSETNUM E-INCLINATION F-RAAN
G-ECCENTRICITY H-ARGPERIGEE I-MNANOM J-MNMOTION K-ORBITNUM Z-CHECKSUM
TO ALL RADIO AMATEURS BT
AO-07
1 07530U 74089B 18179.45010994 -.00000047 00000-0 -14999-4 0 9990
2 07530 101.6875 146.6018 0011858 315.5987 212.7278 12.53633122996003
UO-11
1 14781U 84021B 18179.53804958 .00000095 00000-0 17900-4 0 9999
2 14781 097.6481 215.2700 0009682 052.6359 307.5735 14.83014020825121
LO-19
1 20442U 90005G 18179.38513723 -.00000006 00000-0 13923-4 0 9993
2 20442 098.6105 117.8083 0012820 114.7110 245.5410 14.32898893485495
HUBBLE
1 20580U 90037B 18179.03445399 .00000539 00000-0 22054-4 0 9991
2 20580 028.4704 043.3993 0002534 255.9721 220.7489 15.09058489347025
MET-2/21
1 22782U 93055A 18179.38549803 .00000035 00000-0 18273-4 0 9992
2 22782 082.5501 085.0479 0023633 094.9383 043.6557 13.83812686253455
AO-27
1 22825U 93061C 18179.48552508 -.00000012 00000-0 13199-4 0 9992
2 22825 098.8631 155.8060 0007676 320.1852 039.8766 14.30033406290912
IO-26
1 22826U 93061D 18179.42977630 -.00000018 00000-0 10911-4 0 9999
2 22826 098.8571 155.7855 0008032 308.5632 051.4829 14.30365011291360
FO-29
1 24278U 96046B 18179.54393156 -.00000009 00000-0 23730-4 0 9999
2 24278 098.5168 016.7348 0351412 081.4929 282.5866 13.53084237079526
NOAA-15
1 25338U 98030A 18179.55943568 .00000080 00000-0 52443-4 0 9992
2 25338 098.7684 195.9994 0010306 187.9168 172.1851 14.25861833046388
GO-32
1 25397U 98043D 18179.41720687 -.00000019 00000-0 10875-4 0 9997
2 25397 98.6503 119.6701 0001594 34.7821 325.3462 14.23647542 37326
ISS
1 25544U 98067A 18179.59232422 .00002298 00000-0 42157-4 0 9999
2 25544 051.6416 321.8553 0003889 237.5906 182.0395 15.53983334120298
NO-44
1 26931U 01043C 18179.54144863 -.00000012 00000-0 27269-4 0 9994
2 26931 067.0496 200.1120 0007985 273.0449 086.9738 14.30509294874107
SO-50
1 27607U 02058C 18179.12454431 .00000021 00000-0 23809-4 0 9996
2 27607 064.5559 056.6033 0066421 326.0178 033.6678 14.75460609834445
CO-55
1 27844U 03031E 18179.49690512 .00000047 00000-0 41161-4 0 9992
2 27844 098.6859 187.9862 0009431 346.5281 013.5643 14.22120081777766
CO-57
1 27848U 03031J 18179.45938988 .00000042 00000-0 39158-4 0 9992
2 27848 098.6945 188.3511 0009555 357.2332 002.8791 14.21723421777632
RS-22
1 27939U 03042A 18179.56887573 .00000085 00000-0 23705-4 0 9998
2 27939 097.9921 318.4097 0014320 110.8526 310.4048 14.66696363788344
NOAA-18
1 28654U 05018A 18179.58270497 .00000004 00000-0 27261-4 0 9993
2 28654 099.1438 215.2674 0015493 095.7545 264.5393 14.12379246675295
CO-58
1 28895U 05043F 18179.35189478 .00000122 00000-0 32166-4 0 9992
2 28895 097.9104 330.3557 0017628 038.3592 321.8861 14.63557569675271
Falconsat-3
1 30776U 07006E 18179.46059930 .00002137 00000-0 63768-4 0 9995
2 30776 035.4342 194.9781 0002441 148.2967 211.7906 15.34589971626050
CO-65
1 32785U 08021C 18179.47855219 .00000259 00000-0 33661-4 0 9992
2 32785 097.5464 191.1176 0013233 008.3848 351.7588 14.88137658550784
AAUSAT2
1 32788U 08021F 18179.53830518 .00000616 00000-0 62241-4 0 9990
2 32788 097.5206 205.5711 0010618 316.4437 043.5945 14.94372986551772
DO-64
1 32789U 08021G 18179.60578455 .00001056 00000-0 76344-4 0 9996
2 32789 097.5113 234.1264 0010682 256.5395 103.4642 15.06120779553406
CO-66
1 32791U 08021J 18179.48165985 .00000346 00000-0 40740-4 0 9997
2 32791 097.5352 196.5050 0012978 348.1476 011.9435 14.90575014551113
RS-30
1 32953U 08025A 18179.54856364 .00000019 00000-0 68884-4 0 9992
2 32953 082.5025 005.6121 0019059 182.5166 177.5821 12.43083777458183
PRISM
1 33493U 09002B 18179.26939848 .00000552 00000-0 54450-4 0 9992
2 33493 98.1291 81.7859 0014248 282.4699 77.4926 14.96243029512004
NOAA-19
1 33591U 09005A 18179.54641379 .00000039 00000-0 46536-4 0 9990
2 33591 099.1423 157.7988 0013023 297.3623 062.6222 14.12288879483518
TISAT-1
1 36799U 10035E 18179.32491470 .00000577 00000-0 64608-4 0 9996
2 36799 98.1080 315.8363 0012717 165.9044 194.2530 14.90820982431812
JUGNU
1 37839U 11058B 18179.57507453 .00000303 00000-0 19816-4 0 9992
2 37839 019.9623 328.1990 0019023 012.5904 051.0693 14.12622174346872
SRMSAT
1 37841U 11058D 18179.60509333 .00000298 00000-0 18598-4 0 9997
2 37841 019.9736 017.4521 0011788 256.0923 141.6586 14.10608923346404
AO-71
1 37854U 11061E 18179.11322937 .00001663 00000-0 93731-4 0 9993
2 37854 101.7024 249.6738 0163485 041.1592 320.1817 15.05515734363024
HRBE
1 37855U 11061F 18179.57987059 .00001687 00000-0 93310-4 0 9995
2 37855 101.7154 247.9401 0176481 048.6268 312.9968 15.04501940362892
ALMASAT-1
1 38078U 12006B 18179.56196137 .00021693 38209-5 19328-3 0 9993
2 38078 069.4318 185.2634 0234989 089.1570 048.0824 15.41407935342401
HORYU-2
1 38340U 12025D 18179.53443285 .00000201 00000-0 37616-4 0 9998
2 38340 098.3651 201.6445 0011812 168.3010 191.8475 14.75567892318377
RS-40
1 38735U 12041C 18179.54745337 .00000023 00000-0 99259-4 0 9991
2 38735 082.4772 089.5382 0015979 292.2375 067.7009 12.42576474268416
BEESAT-3
1 39134U 13015E 18179.19344500 .00001626 00000-0 86200-4 0 9997
2 39134 064.8643 091.3060 0011749 215.5836 144.4509 15.19213995286192
BEESAT-2
1 39136U 13015G 18179.27300525 .00001204 00000-0 71889-4 0 9996
2 39136 064.8700 107.3648 0021860 235.1998 124.7071 15.16183085285883
ZACUBE-1
1 39417U 13066B 18179.53071367 .00000217 00000-0 33636-4 0 9993
2 39417 097.5860 207.5639 0060581 117.3829 243.3566 14.80946869248473
TRITON-1
1 39427U 13066M 18179.41308633 .00000196 00000-0 39396-4 0 9995
2 39427 097.6416 174.5972 0112934 222.8407 136.3958 14.67679372246032
GOMX-1
1 39430U 13066Q 18179.55005859 .00000183 00000-0 42612-4 0 9999
2 39430 097.6981 155.6056 0150143 294.9912 063.5758 14.59091309244622
LO-74
1 39440U 13066AA 18179.46445230 .00000227 00000-0 38482-4 0 9990
2 39440 097.6005 194.0315 0081098 157.8814 202.5928 14.75684384246383
AO-73
1 39444U 13066AE 18179.52068108 .00000310 00000-0 44482-4 0 9996
2 39444 097.5869 209.0940 0059759 112.8621 247.8918 14.81729666246742
SPROUT
1 39770U 14029E 18179.29385782 .00000749 00000-0 90042-4 0 9991
2 39770 97.8766 280.2468 0009251 163.9880 196.1632 14.86875385222013
DUCHIFAT-1
1 40021U 14033M 18179.33820019 .00000426 00000-0 49703-4 0 9999
2 40021 097.9160 098.0777 0013860 136.6072 223.6239 14.90325664218617
NANOSATCBR1
1 40024U 14033Q 18179.31762352 .00000423 00000-0 50238-4 0 9997
2 40024 097.9095 096.2783 0013088 138.6173 221.6038 14.89586331218017
EO-79
1 40025U 14033R 18179.30478082 .00000318 00000-0 40013-4 0 9994
2 40025 097.9053 094.6810 0013238 142.9668 217.2465 14.88728636217939
DTUSAT-2
1 40030U 14033W 18179.27270303 .00000261 00000-0 34214-4 0 9995
2 40030 097.8999 093.3304 0012823 138.1705 222.0494 14.88335690217878
EO-80
1 40032U 14033Y 18179.33110104 .00000265 00000-0 34721-4 0 9993
2 40032 097.9006 093.3914 0012754 138.5585 221.6601 14.88273047217861
ANTELSAT
1 40034U 14033AA 18179.60935283 .00000212 00000-0 39044-4 0 9993
2 40034 097.8097 055.8283 0059233 159.9048 200.4512 14.73934950215830
VELOX-1
1 40057U 14034E 18179.34815347 .00000321 00000-0 52700-4 0 9993
2 40057 098.2047 290.5884 0009638 295.9606 064.0615 14.77441014215291
DAURIA DX 1
1 40071U 14037C 18179.49822825 .00000115 00000-0 22273-4 0 9990
2 40071 098.3769 311.3645 0007274 288.6725 071.3697 14.81167618214673
